Regional Weather Roundup
Issued by NWS

Home | Current Version | Previous Version | Graphics & Text | Print | Product List | Glossary On
Versions: 1 2 3 4 5 6 7 8 9 10 11 12 13 14 15 16 17 18 19 20 21 22 23 24 25 26 27
000
ASUS45 KPSR 310110
RWRAZ

ARIZONA HOURLY REGIONAL WEATHER ROUNDUP
NATIONAL WEATHER SERVICE PHOENIX AZ
600 PM MST MON MAY 30 2016

NOTE: FAIR INDICATES FEW OR NO CLOUDS BELOW 12,000 FEET WITH NO
SIGNIFICANT WEATHER AND/OR OBSTRUCTIONS TO VISIBILITY.

AZZ001>003-036-310200-
NORTHWEST ARIZONA

CITY           SKY/WX    TMP DP  RH WIND       PRES   REMARKS
KINGMAN        CLOUDY    84  25  11 NE20      29.92S
$$

AZZ004>008-015-016-018-310200-
NORTH CENTRAL ARIZONA

CITY           SKY/WX    TMP DP  RH WIND       PRES   REMARKS
GRAND CANYON   PTSUNNY   68  25  19 N7        30.10F
WILLIAMS       CLOUDY    64  25  22 N13G26    30.19R
PRESCOTT       FAIR      77  16  10 CALM      29.99F
FLAGSTAFF      MOSUNNY   64  24  21 NW10G18   30.12R
PAYSON         SUNNY     77  16  10 S9        30.02S
PAGE           CLOUDY    82  27  13 E10       29.93F
$$

AZZ009>014-017-310200-
NORTHEAST ARIZONA

CITY           SKY/WX    TMP DP  RH WIND       PRES   REMARKS
WINSLOW        MOSUNNY   81  21  11 SW10      29.95F
SAINT JOHNS    PTSUNNY   77  24  14 N10G21    29.98F
WINDOW ROCK    MOSUNNY   75  16  10 W8        30.05S
SHOW LOW       SUNNY     70  14  11 SW10G16   30.07S
$$

AZZ023-310200-
GREATER PHOENIX AREA

CITY           SKY/WX    TMP DP  RH WIND       PRES   REMARKS
PHOENIX        MOSUNNY   91  20   7 NW10      29.75F
BUCKEYE        SUNNY     91  19   7 CALM      29.77F
LUKE AFB       SUNNY     92  16   6 SW7       29.75F
DEER VALLEY    SUNNY     89  19   7 SW10      29.78F
SCOTTSDALE     SUNNY     90  15   6 SW6       29.79F
MESA-FALCON    MOSUNNY  N/A N/A N/A W9        29.74F
MESA-GATEWAY   SUNNY     90  19   7 W3        29.78F
CHANDLER       MOSUNNY   91  14   6 W8        29.77F
$$

AZZ027-028-310200-
SOUTHWEST MARICOPA COUNTY AND PINAL COUNTY

CITY           SKY/WX    TMP DP  RH WIND       PRES   REMARKS
CASA GRANDE    SUNNY     91  28  10 W7G16     29.79S
GILA BEND      FAIR      92  22   8 W10       29.75F
$$

AZZ503-504-507>509-310200-
SOUTHEAST ARIZONA

CITY           SKY/WX    TMP DP  RH WIND       PRES   REMARKS
TUCSON         SUNNY     90  12   5 W15       29.84S
DAVIS-MONTHAN  SUNNY     90  15   6 W14G22    29.82S
RYAN FIELD     SUNNY     90  14   6 SW10      29.83F
NOGALES        SUNNY     85  26  11 SW14G20   29.91S
SIERRA VISTA   SUNNY     81  24  12 SW17      29.96F
DOUGLAS        MOSUNNY   85  34  16 SW22      29.90S
SAFFORD        SUNNY     91  25   9 NW16G24   29.79S
$$

AZZ020-021-025-026-031-310200-
SOUTHWEST ARIZONA

CITY           SKY/WX    TMP DP  RH WIND       PRES   REMARKS
YUMA           SUNNY     93  38  14 S10       29.74F
$$

CAZ031-033-041-043-047-048-061-310200-
SOUTHERN CALIFORNIA

CITY           SKY/WX    TMP DP  RH WIND       PRES   REMARKS
DOWNTOWN L.A.  SUNNY     68  55  63 VRB6      29.90F
L.A. AIRPORT   MOSUNNY   63  56  78 W15       29.92S
SAN DIEGO      MOSUNNY   69  55  60 NW9       29.94S
BURBANK        SUNNY     70  54  56 S9        29.89F
ONTARIO        MOSUNNY   77  52  41 SW10      29.88F
RIVERSIDE      SUNNY     78  53  41 W13       29.88F
PALM SPRINGS   MOSUNNY   97  48  18 NW15G22   29.75S
EL CENTRO NAS  SUNNY     94  33  11 SE5       29.74F
IMPERIAL       SUNNY     96  34  11 CALM      29.72F
BLYTHE         SUNNY     95  33  11 SW5       29.73F
NEEDLES        MOSUNNY   99  23   6 S8        29.73F
$$

NVZ020-UTZ003-310200-
SOUTHERN NEVADA-UTAH

CITY           SKY/WX    TMP DP  RH WIND       PRES   REMARKS
LAS VEGAS      CLOUDY    94  28   9 NE9       29.77F
SALT LAKE CITY PTSUNNY   78  34  20 N15       30.03F
$$

NMZ009-TXZ055-310200-
NEW MEXICO-WEST TEXAS

CITY           SKY/WX    TMP DP  RH WIND       PRES   REMARKS
ALBUQUERQUE    PTSUNNY   80  26  13 S13       29.95F
EL PASO        PTSUNNY   81  43  26 E9        29.91F
$$


........................KEY........................
SKY/WX - SKY CONDITION/WEATHER
TMP    - TEMPERATURE IN FAHRENHEIT
DP     - DEW POINT IN FAHRENHEIT
RH     - RELATIVE HUMIDITY IN PERCENT
WIND   - DIRECTION AND SPEED IN MILES PER HOUR (MPH)
VRB    - VARIABLE WIND DIRECTION
PRES   - MEAN SEA LEVEL PRESSURE IN INCHES OF MERCURY
         F - FALLING PRESSURE   R - RISING PRESSURE
         S - STEADY PRESSURE
VSB    - VISIBILITY IN MILES
HX     - HEAT INDEX IN FAHRENHEIT
WCI    - WIND CHILL INDEX IN FAHRENHEIT
TC     - TEMPERATURE IN CELSIUS WHICH IS ALSO KNOWN AS
         TEMPERATURE IN CENTIGRADE
AFB    - AIR FORCE BASE
         LUKE AFB IS LUKE AIR FORCE BASE
         DAVIS-MONTHAN IS DAVIS-MONTHAN AIR FORCE BASE
NAS    - NAVAL AIR STATION
         EL CENTRO NAS IS EL CENTRO NAVAL AIR STATION
N/A    - NOT AVAILABLE





USA.gov is the U.S. government's official web portal to all federal, state and local government web resources and services.